Terminal Aerodrome Forecast
Issued by NWS

Home | Current Version | Previous Version | Text Only | Print | Product List | Glossary On
Versions: 1 2 3 4 5 6 7 8 9 10 11 12 13 14 15 16 17
000
FTUS43 KGRB 042344
TAFAUW
TAF
KAUW 042344Z 0500/0524 15005KT P6SM SCT020 SCT200
     FM050800 15003KT 5SM BR SCT006 BKN015
      TEMPO 0510/0513 2SM BR BKN006
     FM051500 16005KT P6SM BKN020
     FM051800 20009KT P6SM BKN035=

USA.gov is the U.S. government's official web portal to all federal, state and local government web resources and services.